Flag Weather past 2 weeks in Paterson, New Jersey, U.S.A.

Now
34 °F

Overcast.


Feels Like: 34 °F
Forecast: 32 / 38 °F
Wind: No wind

Location: Essex County Airport

Current Time: Nov 27, 2014 at 3:32:30 AM

Latest Report: Nov 27, 2014 at 2:53 AM


Visibility: 10 mi

Pressure: 29.93 "Hg

Humidity: 85%

Dew point: 30 °F

Location of PatersonLocation

Historic Weather in Paterson — Graph

°F

Paterson temperature yesterday

Maximum temperature yesterday: 44 °F (at 12:53 AM)
Minimum temperature yesterday: 32 °F (at 10:53 AM)
Average temperature yesterday: 37 °F

Past Weeks' High & Low Weather Summary

 TemperatureHumidityPressure
High72 °F (Nov 24, 1:53 PM)96% (Nov 12, 8:00 AM)30.53 "Hg (Nov 12, 8:00 AM)
Low18 °F (Nov 22, 4:53 AM)27% (Nov 23, 1:53 PM)29.53 "Hg (Nov 17, 6:53 PM)
Average39 °F58%30.08 "Hg
* Reported Nov 12 1:53 AM — Nov 27 1:53 AM, Paterson, Weather by CustomWeather, © 2014

Note: Actual official high and low records may vary slightly from our data, if they occured in-between our weather recording intervals... More about our weather records

Advertising

Paterson weather history for previous 24 hours

 ConditionsComfort  
Time TempWeatherWind HumidityBarometerVisibility
1:53 AM
Nov 27
34 °FMostly cloudy.No wind82%29.93 "Hg10 mi
12:53 AM35 °FOvercast.No wind78%29.88 "Hg10 mi
11:53 PM
Nov 26
35 °FOvercast.No wind85%29.88 "Hg10 mi
10:53 PM35 °FLight snow. Overcast.5 mph82%29.85 "Hg10 mi
9:53 PM36 °FLight rain. Overcast.8 mph79%29.85 "Hg10 mi
8:53 PM34 °FLight rain. Mostly cloudy.5 mph85%29.85 "Hg8 mi
8:00 PM34 °FLight snow. Fog.No wind85%29.84 "Hg3 mi
6:53 PM33 °FLight rain. Fog.6 mph88%29.85 "Hg5 mi
6:01 PM33 °FLight rain. Fog.8 mph88%29.82 "Hg5 mi
5:53 PM33 °FLight rain. Fog.7 mph88%29.84 "Hg4 mi
4:53 PM33 °FLight rain. Fog.7 mph88%29.83 "Hg6 mi
3:53 PM33 °FLight snow. Fog.5 mph88%29.87 "Hg3 mi
2:53 PM33 °FLight snow. Fog.6 mph88%29.91 "Hg2 mi
1:53 PM33 °FLight snow. Fog.3 mph88%29.97 "Hg1 mi
12:53 PM32 °FSnow. Fog.5 mph92%30.04 "Hg1 mi
11:53 AM33 °FLight snow. Fog.No wind88%30.06 "Hg1 mi
10:53 AM32 °FSnow. Fog.3 mph92%30.13 "Hg1 mi
9:53 AM33 °FLight snow. Fog.5 mph88%30.14 "Hg1 mi
8:57 AM35 °FRain. Fog.8 mph88%30.12 "Hg2 mi
7:53 AM39 °FLight rain. Overcast.6 mph76%30.15 "Hg7 mi
6:53 AM43 °FOvercast.5 mph58%30.17 "Hg10 mi
5:53 AM44 °FOvercast.6 mph55%30.15 "Hg10 mi
4:53 AM42 °FLight rain. Mostly cloudy.3 mph68%30.16 "Hg10 mi
3:53 AM43 °FOvercast.No wind65%30.20 "Hg10 mi
Weather by CustomWeather, © 2014

See weather overviewHow to use our weather pages